| time (UTC) | temp F | wind direction | speed MPH | gust MPH | rain 1hr in | rain 24hr in | rain mn in | humidity % | barometer mb |
| 20260504034526 | 57 | 246 | 7.0 | 18.0 | 0.00 | 0.01 | 0.01 | 51 | 1009.0 |
| 20260504034007 | 56 | 258 | 8.0 | 18.0 | 0.00 | 0.01 | 0.01 | 51 | 1008.9 |
| 20260504033550 | 56 | 197 | 5.0 | 14.0 | 0.00 | 0.01 | 0.01 | 51 | 1008.8 |
| 20260504033037 | 56 | 210 | 8.0 | 14.0 | 0.00 | 0.01 | 0.01 | 52 | 1009.0 |
| 20260504032516 | 56 | 238 | 4.0 | 10.0 | 0.00 | 0.01 | 0.01 | 51 | 1009.1 |
| 20260504032054 | 56 | 247 | 4.0 | 12.0 | 0.00 | 0.01 | 0.01 | 52 | 1009.1 |
| 20260504031535 | 56 | 255 | 4.0 | 12.0 | 0.00 | 0.01 | 0.01 | 52 | 1009.2 |
| 20260504031013 | 56 | 243 | 5.0 | 23.0 | 0.00 | 0.01 | 0.01 | 52 | 1009.2 |
| 20260504030556 | 56 | 237 | 5.0 | 23.0 | 0.00 | 0.01 | 0.01 | 51 | 1009.2 |
| 20260504030020 | 56 | 227 | 4.0 | 15.0 | 0.00 | 0.01 | 0.01 | 52 | 1009.2 |
| 20260504025601 | 56 | 229 | 7.0 | 15.0 | 0.00 | 0.01 | 0.01 | 52 | 1009.2 |
| 20260504025042 | 56 | 248 | 4.0 | 16.0 | 0.00 | 0.01 | 0.01 | 52 | 1009.2 |
| 20260504024522 | 56 | 250 | 4.0 | 16.0 | 0.00 | 0.01 | 0.01 | 52 | 1009.2 |
| 20260504024002 | 56 | 241 | 5.0 | 14.0 | 0.00 | 0.01 | 0.01 | 52 | 1009.4 |
| 20260504023545 | 56 | 249 | 6.0 | 16.0 | 0.00 | 0.01 | 0.01 | 52 | 1009.3 |
| 20260504023026 | 56 | 249 | 5.0 | 16.0 | 0.00 | 0.01 | 0.01 | 52 | 1009.4 |
| 20260504022509 | 56 | 237 | 6.0 | 14.0 | 0.00 | 0.01 | 0.01 | 52 | 1009.4 |
| 20260504022045 | 56 | 264 | 4.0 | 15.0 | 0.00 | 0.01 | 0.01 | 52 | 1009.4 |
| 20260504021525 | 56 | 236 | 8.0 | 19.0 | 0.00 | 0.01 | 0.01 | 52 | 1009.4 |
| 20260504021004 | 56 | 219 | 8.0 | 16.0 | 0.00 | 0.01 | 0.01 | 52 | 1009.4 |
| 20260504020548 | 56 | 254 | 7.0 | 16.0 | 0.00 | 0.01 | 0.01 | 52 | 1009.3 |
| 20260504020009 | 56 | 250 | 7.0 | 15.0 | 0.00 | 0.01 | 0.01 | 53 | 1009.5 |
| 20260504015552 | 56 | 203 | 5.0 | 12.0 | 0.00 | 0.01 | 0.01 | 53 | 1009.3 |
| 20260504015032 | 56 | 258 | 6.0 | 14.0 | 0.00 | 0.01 | 0.01 | 53 | 1009.5 |
| 20260504014512 | 55 | 217 | 5.0 | 12.0 | 0.00 | 0.01 | 0.01 | 53 | 1009.4 |
| 20260504014055 | 55 | 240 | 3.0 | 16.0 | 0.00 | 0.01 | 0.01 | 54 | 1009.4 |
| 20260504013534 | 55 | 249 | 5.0 | 16.0 | 0.00 | 0.01 | 0.01 | 54 | 1009.4 |
| 20260504013018 | 55 | 223 | 3.0 | 15.0 | 0.00 | 0.01 | 0.01 | 54 | 1009.5 |
| 20260504012555 | 55 | 233 | 6.0 | 15.0 | 0.00 | 0.01 | 0.01 | 54 | 1009.5 |
| 20260504012036 | 55 | 244 | 6.0 | 10.0 | 0.00 | 0.01 | 0.01 | 54 | 1009.5 |
| 20260504011515 | 55 | 222 | 5.0 | 10.0 | 0.00 | 0.01 | 0.01 | 54 | 1009.5 |
| 20260504011058 | 56 | 252 | 4.0 | 10.0 | 0.00 | 0.01 | 0.01 | 54 | 1009.5 |
| 20260504010538 | 56 | 223 | 3.0 | 10.0 | 0.00 | 0.01 | 0.01 | 53 | 1009.4 |
| 20260504010122 | 56 | 213 | 3.0 | 14.0 | 0.00 | 0.01 | 0.01 | 53 | 1009.4 |
| 20260504005544 | 56 | 252 | 5.0 | 15.0 | 0.00 | 0.01 | 0.01 | 54 | 1009.3 |
| 20260504005024 | 56 | 281 | 9.0 | 16.0 | 0.00 | 0.01 | 0.01 | 54 | 1009.3 |
| 20260504004505 | 55 | 259 | 5.0 | 16.0 | 0.00 | 0.01 | 0.01 | 55 | 1009.3 |
| 20260504004047 | 55 | 235 | 4.0 | 11.0 | 0.00 | 0.01 | 0.01 | 55 | 1009.2 |
| 20260504003527 | 55 | 219 | 4.0 | 14.0 | 0.00 | 0.01 | 0.01 | 55 | 1009.2 |
| 20260504003006 | 55 | 239 | 6.0 | 14.0 | 0.00 | 0.01 | 0.01 | 56 | 1009.2 |
| 20260504002550 | 55 | 258 | 5.0 | 11.0 | 0.00 | 0.01 | 0.01 | 57 | 1009.2 |
| 20260504002031 | 55 | 258 | 4.0 | 10.0 | 0.00 | 0.01 | 0.01 | 58 | 1009.2 |
| 20260504001510 | 55 | 259 | 1.0 | 8.0 | 0.00 | 0.01 | 0.01 | 59 | 1009.2 |
| 20260504001055 | 55 | 242 | 3.0 | 10.0 | 0.00 | 0.01 | 0.01 | 59 | 1009.2 |
| 20260504000534 | 54 | 210 | 4.0 | 14.0 | 0.00 | 0.01 | 0.01 | 60 | 1009.2 |
| 20260504000140 | 54 | 200 | 2.0 | 8.0 | 0.00 | 0.01 | 0.01 | 63 | 1009.3 |
| 20260503235540 | 54 | 259 | 0.0 | 9.0 | 0.00 | 0.01 | 0.01 | 66 | 1009.3 |
| 20260503235020 | 53 | 252 | 3.0 | 9.0 | 0.00 | 0.01 | 0.01 | 68 | 1009.5 |
| 20260503234604 | 53 | 261 | 1.0 | 4.0 | 0.00 | 0.01 | 0.01 | 70 | 1009.5 |
| 20260503234047 | 52 | 271 | 0.0 | 4.0 | 0.00 | 0.01 | 0.01 | 71 | 1009.6 |
| 20260503233525 | 52 | 270 | 0.0 | 4.0 | 0.00 | 0.01 | 0.01 | 73 | 1009.7 |
| 20260503233007 | 52 | 224 | 0.0 | 4.0 | 0.00 | 0.01 | 0.01 | 75 | 1009.8 |
| 20260503232548 | 52 | 223 | 0.0 | 0.0 | 0.00 | 0.01 | 0.01 | 76 | 1009.8 |
| 20260503232029 | 52 | 223 | 0.0 | 2.0 | 0.00 | 0.01 | 0.01 | 77 | 1009.9 |
| 20260503231508 | 51 | 223 | 0.0 | 2.0 | 0.00 | 0.01 | 0.01 | 79 | 1010.0 |
| 20260503231052 | 51 | 223 | 0.0 | 2.0 | 0.01 | 0.01 | 0.01 | 79 | 1010.0 |
| 20260503230535 | 51 | 223 | 0.0 | 2.0 | 0.01 | 0.01 | 0.01 | 79 | 1010.0 |
| 20260503230116 | 51 | 223 | 0.0 | 0.0 | 0.01 | 0.01 | 0.01 | 80 | 1010.2 |
| 20260503225543 | 51 | 223 | 0.0 | 0.0 | 0.01 | 0.01 | 0.01 | 80 | 1010.1 |
| 20260503225018 | 52 | 223 | 0.0 | 0.0 | 0.01 | 0.01 | 0.01 | 80 | 1010.0 |
| 20260503224601 | 52 | 223 | 0.0 | 0.0 | 0.01 | 0.01 | 0.01 | 80 | 1010.1 |
| 20260503224041 | 52 | 223 | 0.0 | 0.0 | 0.01 | 0.01 | 0.01 | 79 | 1010.0 |
| 20260503223522 | 52 | 223 | 0.0 | 0.0 | 0.01 | 0.01 | 0.01 | 78 | 1010.1 |
| 20260503223001 | 52 | 223 | 0.0 | 0.0 | 0.01 | 0.01 | 0.01 | 77 | 1010.2 |
| 20260503222545 | 52 | 223 | 0.0 | 6.0 | 0.01 | 0.01 | 0.01 | 77 | 1010.3 |
| 20260503222025 | 52 | 223 | 2.0 | 8.0 | 0.01 | 0.01 | 0.01 | 76 | 1010.4 |
| 20260503221505 | 52 | 246 | 2.0 | 7.0 | 0.01 | 0.01 | 0.01 | 76 | 1010.4 |
| 20260503221049 | 52 | 254 | 2.0 | 5.0 | 0.00 | 0.00 | 0.00 | 75 | 1010.4 |
| 20260503220530 | 52 | 250 | 0.0 | 5.0 | 0.00 | 0.00 | 0.00 | 75 | 1010.4 |
| 20260503220113 | 53 | 250 | 0.0 | 8.0 | 0.00 | 0.00 | 0.00 | 74 | 1010.4 |
| 20260503215536 | 53 | 249 | 2.0 | 9.0 | 0.00 | 0.00 | 0.00 | 72 | 1010.3 |
| 20260503215015 | 53 | 270 | 3.0 | 9.0 | 0.00 | 0.00 | 0.00 | 71 | 1010.3 |
| 20260503214601 | 54 | 236 | 4.0 | 9.0 | 0.00 | 0.00 | 0.00 | 70 | 1010.3 |
| 20260503214043 | 54 | 252 | 4.0 | 9.0 | 0.00 | 0.00 | 0.00 | 68 | 1010.2 |
| 20260503213523 | 55 | 248 | 2.0 | 14.0 | 0.00 | 0.00 | 0.00 | 65 | 1010.0 |
| 20260503213111 | 55 | 273 | 6.0 | 14.0 | 0.00 | 0.00 | 0.00 | 63 | 1009.9 |
| 20260503212546 | 56 | 242 | 3.0 | 15.0 | 0.00 | 0.00 | 0.00 | 59 | 1009.8 |
| 20260503212021 | 56 | 254 | 7.0 | 15.0 | 0.00 | 0.00 | 0.00 | 58 | 1009.6 |
| 20260503211621 | 56 | 241 | 6.0 | 13.0 | 0.00 | 0.00 | 0.00 | 58 | 1009.4 |
| 20260503211044 | 56 | 275 | 4.0 | 14.0 | 0.00 | 0.00 | 0.00 | 58 | 1009.3 |
| 20260503210523 | 56 | 251 | 4.0 | 14.0 | 0.00 | 0.00 | 0.00 | 58 | 1009.4 |
| 20260503210108 | 55 | 245 | 3.0 | 9.0 | 0.00 | 0.00 | 0.00 | 59 | 1009.5 |
| 20260503205530 | 55 | 238 | 3.0 | 10.0 | 0.00 | 0.00 | 0.00 | 59 | 1009.7 |
| 20260503205009 | 54 | 222 | 3.0 | 14.0 | 0.00 | 0.00 | 0.00 | 59 | 1009.7 |
| 20260503204554 | 54 | 248 | 7.0 | 14.0 | 0.00 | 0.00 | 0.00 | 58 | 1009.7 |
| 20260503204033 | 54 | 246 | 5.0 | 11.0 | 0.00 | 0.00 | 0.00 | 58 | 1009.7 |
| 20260503203515 | 54 | 158 | 4.0 | 10.0 | 0.00 | 0.00 | 0.00 | 58 | 1009.8 |
| 20260503203113 | 55 | 237 | 2.0 | 10.0 | 0.00 | 0.00 | 0.00 | 58 | 1009.7 |
| 20260503202540 | 55 | 244 | 3.0 | 10.0 | 0.00 | 0.00 | 0.00 | 59 | 1009.8 |
| 20260503202017 | 55 | 235 | 3.0 | 8.0 | 0.00 | 0.00 | 0.00 | 58 | 1009.8 |
| 20260503201602 | 55 | 244 | 3.0 | 9.0 | 0.00 | 0.00 | 0.00 | 59 | 1009.9 |
| 20260503201041 | 55 | 251 | 4.0 | 19.0 | 0.00 | 0.00 | 0.00 | 57 | 1010.0 |
| 20260503200521 | 55 | 246 | 6.0 | 19.0 | 0.00 | 0.00 | 0.00 | 57 | 1010.0 |
| 20260503200105 | 55 | 252 | 3.0 | 8.0 | 0.00 | 0.00 | 0.00 | 57 | 1010.0 |
| 20260503195527 | 56 | 248 | 4.0 | 11.0 | 0.00 | 0.00 | 0.00 | 57 | 1010.0 |
| 20260503195007 | 56 | 229 | 4.0 | 13.0 | 0.00 | 0.00 | 0.00 | 57 | 1010.0 |
| 20260503194554 | 56 | 243 | 3.0 | 13.0 | 0.00 | 0.00 | 0.00 | 57 | 1010.1 |
| 20260503194029 | 56 | 262 | 4.0 | 12.0 | 0.00 | 0.00 | 0.00 | 57 | 1010.1 |
| 20260503193510 | 55 | 231 | 5.0 | 10.0 | 0.00 | 0.00 | 0.00 | 55 | 1010.3 |
| 20260503193054 | 56 | 235 | 5.0 | 10.0 | 0.00 | 0.00 | 0.00 | 55 | 1010.5 |
| 20260503192533 | 56 | 256 | 4.0 | 10.0 | 0.00 | 0.00 | 0.00 | 54 | 1010.5 |
| 20260503192013 | 57 | 241 | 4.0 | 10.0 | 0.00 | 0.00 | 0.00 | 52 | 1010.6 |
| 20260503191604 | 57 | 261 | 4.0 | 9.0 | 0.00 | 0.00 | 0.00 | 53 | 1010.7 |
| 20260503191041 | 57 | 248 | 3.0 | 11.0 | 0.00 | 0.00 | 0.00 | 54 | 1010.7 |
| 20260503190520 | 57 | 185 | 4.0 | 11.0 | 0.00 | 0.00 | 0.00 | 54 | 1010.9 |
| 20260503185521 | 56 | 207 | 3.0 | 10.0 | 0.00 | 0.00 | 0.00 | 54 | 1011.1 |
| 20260503185002 | 55 | 270 | 3.0 | 12.0 | 0.00 | 0.00 | 0.00 | 54 | 1011.1 |
| 20260503184545 | 55 | 250 | 5.0 | 12.0 | 0.00 | 0.00 | 0.00 | 54 | 1011.2 |
| 20260503184025 | 55 | 238 | 4.0 | 11.0 | 0.00 | 0.00 | 0.00 | 54 | 1011.3 |
| 20260503183505 | 55 | 219 | 2.0 | 9.0 | 0.00 | 0.00 | 0.00 | 54 | 1011.4 |
| 20260503183049 | 55 | 240 | 3.0 | 15.0 | 0.00 | 0.00 | 0.00 | 52 | 1011.5 |
| 20260503182529 | 55 | 229 | 4.0 | 15.0 | 0.00 | 0.00 | 0.00 | 51 | 1011.5 |
| 20260503182009 | 55 | 293 | 4.0 | 10.0 | 0.00 | 0.00 | 0.00 | 52 | 1011.7 |
| 20260503181603 | 55 | 269 | 2.0 | 14.0 | 0.00 | 0.00 | 0.00 | 52 | 1011.8 |
| 20260503181034 | 54 | 265 | 5.0 | 14.0 | 0.00 | 0.00 | 0.00 | 51 | 1011.8 |
| 20260503180512 | 55 | 163 | 7.0 | 13.0 | 0.00 | 0.00 | 0.00 | 49 | 1011.8 |
| 20260503180106 | 55 | 230 | 4.0 | 13.0 | 0.00 | 0.00 | 0.00 | 51 | 1011.8 |
| 20260503175515 | 54 | 208 | 5.0 | 15.0 | 0.00 | 0.00 | 0.00 | 50 | 1012.0 |
| 20260503175057 | 54 | 247 | 7.0 | 16.0 | 0.00 | 0.00 | 0.00 | 49 | 1012.1 |
| 20260503174538 | 54 | 184 | 5.0 | 16.0 | 0.00 | 0.00 | 0.00 | 51 | 1012.1 |
| 20260503174020 | 54 | 224 | 3.0 | 14.0 | 0.00 | 0.00 | 0.00 | 54 | 1012.2 |
| 20260503173601 | 54 | 219 | 5.0 | 13.0 | 0.00 | 0.00 | 0.00 | 55 | 1012.4 |
| 20260503173053 | 54 | 216 | 5.0 | 13.0 | 0.00 | 0.00 | 0.00 | 56 | 1012.4 |
| 20260503172521 | 54 | 256 | 2.0 | 11.0 | 0.00 | 0.00 | 0.00 | 58 | 1012.4 |
| 20260503172001 | 53 | 244 | 4.0 | 18.0 | 0.00 | 0.00 | 0.00 | 57 | 1012.5 |
| 20260503171545 | 53 | 254 | 7.0 | 18.0 | 0.00 | 0.00 | 0.00 | 56 | 1012.5 |
| 20260503171025 | 52 | 243 | 5.0 | 10.0 | 0.00 | 0.00 | 0.00 | 54 | 1012.7 |
| 20260503170506 | 52 | 243 | 5.0 | 10.0 | 0.00 | 0.00 | 0.00 | 51 | 1012.7 |
| 20260503150553 | 50 | 304 | 4.0 | 11.0 | 0.00 | 0.00 | 0.00 | 48 | 1014.3 |
| 20260503131101 | 46 | 256 | 3.0 | 8.0 | 0.00 | 0.00 | 0.00 | 65 | 1014.7 |
| 20260503130542 | 46 | 248 | 2.0 | 8.0 | 0.00 | 0.00 | 0.00 | 67 | 1014.6 |
| 20260503120119 | 43 | 240 | 3.0 | 7.0 | 0.00 | 0.00 | 0.00 | 79 | 1014.7 |
| 20260503110532 | 35 | 236 | 0.0 | 0.0 | 0.00 | 0.00 | 0.00 | 83 | 1014.7 |
| 20260503110116 | 35 | 236 | 0.0 | 0.0 | 0.00 | 0.00 | 0.00 | 83 | 1014.7 |
| 20260503100113 | 34 | 236 | 0.0 | 0.0 | 0.00 | 0.00 | 0.00 | 80 | 1014.8 |
| 20260503090107 | 34 | 236 | 0.0 | 0.0 | 0.00 | 0.00 | 0.00 | 75 | 1015.2 |
| 20260503081558 | 35 | 236 | 0.0 | 0.0 | 0.00 | 0.00 | 0.00 | 71 | 1015.5 |
| 20260503081037 | 35 | 236 | 0.0 | 0.0 | 0.00 | 0.00 | 0.00 | 72 | 1015.4 |
| 20260503080519 | 35 | 236 | 0.0 | 0.0 | 0.00 | 0.00 | 0.00 | 72 | 1015.4 |
| 20260503072531 | 38 | 236 | 0.0 | 0.0 | 0.00 | 0.00 | 0.00 | 66 | 1015.4 |
| 20260503072011 | 38 | 236 | 0.0 | 0.0 | 0.00 | 0.00 | 0.00 | 65 | 1015.4 |
| 20260503071603 | 38 | 236 | 0.0 | 2.0 | 0.00 | 0.00 | 0.00 | 65 | 1015.4 |
| 20260503071035 | 38 | 236 | 0.0 | 2.0 | 0.00 | 0.00 | 0.00 | 64 | 1015.4 |
| 20260503070519 | 38 | 236 | 0.0 | 2.0 | 0.00 | 0.00 | 0.00 | 64 | 1015.5 |
| 20260503070105 | 38 | 236 | 0.0 | 2.0 | 0.00 | 0.00 | 0.00 | 64 | 1015.5 |
| 20260503060107 | 40 | 239 | 1.0 | 5.0 | 0.00 | 0.00 | 0.00 | 68 | 1015.6 |
| 20260503055058 | 40 | 239 | 0.0 | 3.0 | 0.00 | 0.00 | 0.00 | 69 | 1015.6 |
| 20260503054538 | 40 | 239 | 1.0 | 4.0 | 0.00 | 0.00 | 0.00 | 69 | 1015.6 |
| 20260503054017 | 40 | 239 | 0.0 | 2.0 | 0.00 | 0.00 | 0.00 | 69 | 1015.6 |
| 20260503053603 | 40 | 239 | 0.0 | 2.0 | 0.00 | 0.00 | 0.00 | 68 | 1015.5 |
| 20260503053044 | 40 | 239 | 0.0 | 4.0 | 0.00 | 0.00 | 0.00 | 67 | 1015.6 |
| 20260503052522 | 40 | 239 | 0.0 | 4.0 | 0.00 | 0.00 | 0.00 | 67 | 1015.7 |
| 20260503052003 | 40 | 239 | 1.0 | 2.0 | 0.00 | 0.00 | 0.00 | 67 | 1015.7 |
| 20260503051546 | 40 | 239 | 0.0 | 2.0 | 0.00 | 0.00 | 0.00 | 67 | 1015.6 |
| 20260503051025 | 40 | 239 | 0.0 | 2.0 | 0.00 | 0.00 | 0.00 | 67 | 1015.6 |
| 20260503050505 | 40 | 239 | 0.0 | 4.0 | 0.00 | 0.00 | 0.00 | 67 | 1015.7 |
| 20260503050050 | 40 | 239 | 0.0 | 4.0 | 0.00 | 0.00 | 0.00 | 67 | 1015.7 |
| 20260503045511 | 40 | 239 | 0.0 | 4.0 | 0.00 | 0.00 | 0.00 | 67 | 1015.8 |
| 20260503045055 | 40 | 238 | 0.0 | 4.0 | 0.00 | 0.00 | 0.00 | 68 | 1015.7 |
| 20260503044535 | 40 | 238 | 0.0 | 4.0 | 0.00 | 0.00 | 0.00 | 68 | 1015.8 |
| 20260503044014 | 40 | 238 | 0.0 | 4.0 | 0.00 | 0.00 | 0.00 | 68 | 1015.9 |
| 20260503043558 | 40 | 238 | 0.0 | 1.0 | 0.00 | 0.00 | 0.00 | 69 | 1015.9 |
| 20260503043039 | 40 | 238 | 0.0 | 6.0 | 0.00 | 0.00 | 0.00 | 69 | 1016.0 |
| 20260503042519 | 40 | 238 | 1.0 | 6.0 | 0.00 | 0.00 | 0.00 | 69 | 1016.1 |
| 20260503042104 | 40 | 240 | 0.0 | 2.0 | 0.00 | 0.00 | 0.00 | 70 | 1016.0 |
| 20260503041543 | 40 | 240 | 0.0 | 4.0 | 0.00 | 0.00 | 0.00 | 70 | 1016.0 |
| 20260503041022 | 40 | 239 | 0.0 | 4.0 | 0.00 | 0.00 | 0.00 | 71 | 1016.0 |
| 20260503040502 | 40 | 239 | 0.0 | 4.0 | 0.00 | 0.00 | 0.00 | 71 | 1016.0 |
| 20260503040047 | 40 | 239 | 0.0 | 4.0 | 0.00 | 0.00 | 0.00 | 71 | 1016.0 |
| 20260503035509 | 40 | 241 | 0.0 | 4.0 | 0.00 | 0.00 | 0.00 | 72 | 1016.0 |
| 20260503035053 | 40 | 241 | 0.0 | 4.0 | 0.00 | 0.00 | 0.00 | 73 | 1016.0 |